Regional Weather Roundup
Issued by NWS Portland, ME

Current Version | Previous Version | Text Only | Print | Product List | Glossary On
Versions: 1 2 3 4 5 6 7 8 9 10 11 12 13 14 15 16 17 18 19 20 21 22 23 24 25 26 27 28 29 30 31 32 33 34 35 36 37 38 39 40 41 42 43 44 45 46 47 48 49 50
000
ASUS41 KGYX 030710
RWRGYX
WEATHER ROUNDUP FOR MAINE AND NEW HAMPSHIRE
NATIONAL WEATHER SERVICE GRAY ME
200 AM EST TUE MAR 03 2015

MEZ002-005-006-010-012-015-018-020-021-024-026-027-029-030800-
MAINE

CITY           SKY/WX    TMP DP  RH WIND       PRES   REMARKS
PORTLAND       CLEAR     19  -3  38 N7        30.24R
SANFORD        CLEAR     12  -4  48 CALM      30.23R
BAR HARBOR     CLEAR     14  -4  44 NW9G18    30.14R
WISCASSET      CLEAR     18  -3  39 VRB6      30.22R
ROCKLAND       CLEAR     16  -2  45 NW6       30.19R
FRYEBURG       CLEAR     13  -6  42 S5        30.18R
LEWISTONAUBURN CLEAR     18  -4  38 W5        30.20R
AUGUSTA        CLEAR     15  -5  40 NW12      30.18R WCI   2
WATERVILLE     CLEAR     12  -6  44 NW5       30.15R
BANGOR         CLEAR     13  -6  42 NW14G21   30.15R WCI  -2
GREENVILLE       N/A      5  -7  57 NW17G36   29.97R WCI -14
MILLINOCKET    MIX PCPN  11  -6  46 W25G39    30.07R WCI -10
HOULTON        CLEAR      8  -7  50 NW13G23   30.04R WCI  -8
PRESQUE ISLE   CLEAR      7  -9  47 NW14G22   30.04R WCI -10
FRENCHVILLE    CLEAR      2 -12  52 NW14G32   30.00R WCI -16
CARIBOU        CLEAR      5 -10  50 NW17G25   30.03R WCI -14
$$

NHZ002-005-008-009-011-012-014-030800-
NEW HAMPSHIRE

CITY           SKY/WX    TMP DP  RH WIND       PRES   REMARKS
PORTSMOUTH     CLEAR     19   0  42 W6        30.25R
ROCHESTER      CLEAR     17  -1  45 VRB3      30.23R
NASHUA         CLEAR     20   3  47 CALM      30.30R
MANCHESTER     CLEAR     21   4  47 NW12      30.27R WCI   9
CONCORD        CLEAR     19   1  45 NW8       30.26R
LACONIA        CLEAR     18  -2  41 W9G20     30.20S
PLYMOUTH       FAIR      18   5  58 NW13      30.24R WCI   4
BERLIN         PTCLDY    12  -4  48 NW6       30.19R
WHITEFIELD     CLEAR     11  -5  48 W9        30.23R
JAFFREY        CLEAR     17   1  49 VRB5      30.23R
KEENE          CLEAR     19   3  49 NW7       30.28R
LEBANON        CLEAR     17   0  47 N8        30.27R
MT WASHINGTON  ICE FOG  -13 -13 100 NW70G77     N/A  VSB 1/8 WCI -54
$$

VTZ005-007-008-030800-
VERMONT

CITY           SKY/WX    TMP DP  RH WIND       PRES   REMARKS
ST JOHNSBURY     N/A     14  -3  47 MISG      30.25R
MONTPELIER     CLEAR     12  -1  56 NW5       30.27R
BURLINGTON     CLEAR      9   0  67 CALM      30.34R
$$

MAZ007-012-024-CTZ003-RIZ002-NYZ038-NYZ072-030800-
SOUTHERN NEW ENGLAND AND NY

CITY           SKY/WX    TMP DP  RH WIND       PRES   REMARKS
BOSTON         PTCLDY    23   5  46 NW5       30.31R
WORCESTER      CLEAR     16   4  59 NW7       30.24R
NANTUCKET      CLEAR     27  13  55 NW15G24   30.28R WCI  15
PROVIDENCE     CLEAR     20   7  57 W9        30.32R
HARTFORD       CLEAR     21   7  54 NW15      30.33R WCI   8
ALBANY         CLEAR     17   5  59 W9        30.36S
NEW YORK CITY  CLEAR     27  11  51 NW12      30.39R WCI  17
$$

ANZ081-ANZ082-ANZ150-NHZ014-MEZ023>029-030800-
COASTAL MARINE OBSERVATIONS

STATION/POSITION TIME  TEMP    WIND        PRES    WAVE
                       AIR SEA DIR/SP/G            HT/PER
                 (UTC) (F)     (DEG/KT/KT) (MB)    (FT/S)
MOUNT DESERT ROC 0700   19                 1020.3R
MATINICUS ROCK   0700   20     310/ 26/ 29 1022.0R
WELLS            0600   22     240/  5/  7   N/A
ISLE OF SHOALS   0700   23     290/ 17/ 19 1023.9R
JEFFREYS LEDGE   0621      40                N/A     6/ 5
CASHES LEDGE BUO 0650   25 38              1022.1R   9/ 7
$$

.............KEY..............
   WCI - WIND CHILL
   TC  - TEMPERATURE IN CELSIUS
   VSB - VISIBILITY IN MILES
   HX  - HEAT INDEX
   FAIR- INDICATES FEW OR NO CLOUDS BELOW 12,000 FT, WITH NO
         SIGNIFICANT WEATHER AND/OR OBSTRUCTIONS TO VISIBILITY.




USA.gov is the U.S. government's official web portal to all federal, state and local government web resources and services.